SCP
0 0 0 0 0 0 0 0 0 0 0 0 0 0 0 0 0 0 0 0 0 0 0 0 0 0 0 0 0 0 0 0 0 0 0 0 0 -0 -0 0 0 0 0
0 0 0 0 0 0 0 0 0 0 0 0 0 0 0 0 0 1 1 1 0 0 0 0 0 0 0 0 0 0 0 0 0 0 0 0 0 -0 -0 0 0 0 -0
0 0 0 0 0 0 0 0 0 0 0 0 0 0 0 0 0 0 0 0 0 0 0 0 0 0 0 0 0 0 0 0 0 0 0 0 0 -0 0 0 -0 0 0
0 0 0 0 0 0 0 0 0 0 0 0 0 0 0 0 0 0 0 0 0 0 0 0 0 0 0 0 0 0 -0 0 0 0 0 0 0 0 0 0 -0 -0 -0
0 0 0 0 0 0 0 0 0 0 0 0 0 0 0 0 0 0 0 0 0 0 0 0 0 0 0 0 0 0 0 0 0 0 0 0 0 0 -0 -0 0 -0 0
1 0 1 0 0 0 0 0 0 0 0 0 0 0 0 0 0 0 0 0 0 0 0 0 0 0 0 0 0 -0 0 0 0 0 0 0 0 0 0 0 0 -0 0
1 0 1 1 1 0 0 0 0 0 0 0 0 0 0 0 0 0 0 0 0 0 0 0 0 0 0 0 -0 -0 0 0 0 -0 0 0 0 -0 -0 -0 -0 0 0
2 2 1 1 1 1 0 0 0 0 0 0 0 0 0 0 0 0 0 0 0 0 0 0 0 0 0 0 -0 -0 0 0 0 -0 0 0 0 -0 -0 0 -0 -0 -0
2 2 2 1 1 1 1 0 0 0 0 0 0 0 0 0 0 0 0 0 0 0 0 0 0 0 -0 0 0 -0 0 0 0 0 0 0 0 -0 0 0 0 -0 0
2 2 2 1 2 1 1 0 0 0 0 0 0 0 0 0 0 0 0 0 0 0 0 0 0 0 0 0 0 -0 -0 0 0 0 0 0 0 0 0 0 -0 -0 -0
3 3 2 1 1 1 1 0 0 0 0 0 0 0 0 0 0 0 0 0 0 0 0 0 0 0 0 0 0 0 0 0 0 0 0 0 0 0 0 0 0 -0 -0
3 3 2 1 1 1 1 0 0 0 0 0 0 0 0 0 0 0 0 0 0 0 0 0 0 -0 -0 0 0 0 0 0 0 0 -0 -0 0 0 0 0 0 -0 -0
3 2 2 1 1 1 1 0 0 0 0 0 0 0 0 0 0 0 0 0 0 0 0 0 0 -0 -0 0 0 0 0 0 0 0 -0 -0 -0 0 0 0 -0 -0 -0
2 1 1 1 1 1 0 0 0 0 0 0 0 0 0 0 0 0 0 0 0 0 0 0 0 -0 -0 0 0 0 0 0 0 0 -0 -0 0 0 0 0 0 0 0
2 1 1 1 1 0 0 0 0 0 0 0 0 0 0 0 0 0 0 0 0 0 0 0 0 0 0 0 0 0 0 0 0 0 0 0 0 0 0 0 0 0 0
1 1 1 1 0 0 0 0 0 0 0 0 0 0 0 0 0 0 0 0 0 0 0 0 0 0 0 0 0 0 0 0 0 0 0 0 0 0 0 0 -0 0 0
1 1 1 0 0 0 0 0 0 0 0 0 0 0 0 0 0 0 0 0 0 0 0 0 0 0 0 0 0 0 0 0 0 0 0 0 0 0 0 0 -0 0 0
1 1 0 0 0 0 0 0 0 0 0 0 0 0 0 0 0 0 0 0 0 0 0 0 0 0 0 0 0 0 0 0 0 0 0 0 0 0 0 0 0 0 0
1 0 0 0 0 0 0 0 0 0 0 0 0 0 0 0 0 0 0 0 0 -0 0 0 0 0 0 0 0 0 0 0 0 0 0 0 0 0 0 0 0 0 0
0 0 0 0 0 0 0 0 0 0 0 0 0 0 0 0 0 0 0 0 0 0 0 0 0 0 0 0 0 0 0 0 0 0 0 0 0 0 0 0 0 0 0
0 0 0 0 0 0 0 0 0 0 0 0 0 0 0 0 0 0 0 0 0 0 0 0 0 0 0 0 0 0 0 0 0 0 0 0 0 0 0 0 0 0 0
0 0 0 0 0 0 0 0 0 0 0 0 0 0 0 0 0 -0 -0 0 -0 0 0 0 0 0 0 0 0 0 0 0 0 0 0 0 0 0 0 0 0 0 0
0 0 0 0 0 0 0 0 0 0 0 0 0 0 0 0 0 0 0 0 -0 0 -0 0 0 0 0 0 0 0 0 0 0 0 0 0 0 0 0 0 0 0 0
0 0 0 0 0 0 0 0 0 0 0 0 0 0 0 0 0 0 0 0 0 0 0 0 0 0 0 0 0 0 0 0 0 0 0 0 0 0 0 0 0 0 -0
0 0 0 0 0 0 0 0 0 0 0 0 0 0 0 0 0 -0 0 0 0 0 -0 0 0 0 0 0 0 0 0 0 0 0 0 0 0 0 0 0 0 -0 0
0 0 0 0 0 0 0 0 0 0 0 0 0 0 0 0 0 -0 0 0 0 0 0 0 0 0 0 0 0 0 0 0 0 0 0 0 0 0 0 0 0 -0 -0
Wind_Speed_500mb
36 31 30 35 40 42 44 47 49 38 32 34 34 28 25 26 26 30 27 32 25 31 31 26 29 31 26 29 27 24 24 24 24 22 28 34 33 28 11 28 24 30 33
40 36 31 33 36 36 37 38 38 32 23 20 22 30 28 32 31 37 36 35 29 37 38 27 31 29 29 29 31 27 25 26 28 24 28 27 43 36 22 31 25 29 30
44 42 39 38 36 34 36 35 34 36 38 30 24 29 33 35 39 34 37 44 40 38 41 32 33 28 28 30 31 31 29 27 26 26 27 32 44 45 30 35 27 29 27
49 47 44 45 39 39 37 39 38 38 34 37 33 30 37 37 34 39 44 48 46 37 38 34 30 23 25 27 31 31 31 32 27 27 29 29 42 43 35 28 26 26 28
52 52 50 50 44 43 40 40 40 44 45 37 36 37 34 35 43 45 51 46 34 37 36 29 27 27 25 24 31 31 30 33 30 28 33 28 42 35 37 28 26 23 23
56 52 52 51 49 48 41 40 44 49 47 42 36 35 41 45 44 45 35 31 31 32 33 35 33 31 27 22 30 31 31 36 32 30 30 31 44 37 40 33 31 24 14
56 54 54 48 49 50 43 42 42 46 45 39 36 37 41 48 48 45 35 31 29 33 38 40 33 34 33 25 27 32 31 34 34 30 30 32 38 41 38 34 38 29 16
52 50 49 46 47 49 43 47 45 44 43 46 43 41 41 42 44 40 32 33 32 32 26 29 30 37 36 29 26 30 33 36 32 32 30 33 36 40 43 37 36 31 27
51 46 43 43 43 47 44 48 50 45 46 44 41 33 13 18 18 19 20 21 25 28 26 30 33 32 36 35 29 29 32 37 36 33 31 33 38 42 46 31 29 25 25
53 47 43 41 40 44 43 38 40 43 43 44 44 43 42 34 18 12 10 12 15 21 20 23 28 30 35 34 32 28 32 33 36 32 33 33 36 40 42 38 37 28 26
56 48 43 40 39 41 39 41 40 39 41 41 41 43 35 32 33 28 23 16 16 18 20 20 20 23 35 33 42 31 33 34 37 31 33 34 37 39 38 31 36 31 28
57 49 43 37 35 38 37 39 36 29 32 38 36 38 35 36 34 27 25 19 18 17 20 17 19 23 39 25 28 29 31 34 34 31 32 37 38 44 39 39 34 29 32
60 51 43 35 34 43 38 37 35 34 31 33 31 34 35 34 32 26 23 16 18 18 20 19 17 19 25 28 27 31 30 34 32 31 33 41 44 44 40 39 35 32 39
56 48 39 31 33 39 38 38 31 30 30 31 33 34 32 33 33 32 26 22 16 20 19 14 16 19 26 27 21 26 27 28 32 32 36 43 44 44 43 34 29 41 40
52 48 37 33 43 41 36 38 32 31 31 30 32 31 29 29 28 28 25 23 22 18 16 15 13 20 24 26 26 22 24 25 31 34 39 40 41 44 37 34 39 44 36
55 43 37 42 47 40 35 33 28 29 28 28 29 27 26 24 25 25 24 21 21 20 19 15 17 23 29 29 29 29 24 25 29 34 36 40 43 41 35 40 43 38 35
54 41 44 50 46 40 35 32 27 25 25 25 25 23 21 20 23 24 25 24 21 16 22 18 19 23 26 31 36 31 28 25 29 32 38 40 39 37 40 39 38 35 33
51 45 48 48 47 38 32 29 28 27 26 19 19 16 19 20 21 23 24 29 27 16 16 17 23 28 28 33 33 35 34 28 27 32 36 38 40 36 36 37 40 38 33
54 53 48 48 41 33 26 24 19 27 25 17 9 13 17 21 20 19 20 24 28 23 17 18 24 32 33 35 35 41 30 30 30 34 34 38 38 32 35 40 39 36 31
58 52 47 41 38 27 25 21 22 28 24 22 17 16 18 17 19 20 21 24 28 26 22 21 25 35 39 39 38 37 37 33 37 42 41 39 37 39 38 39 37 35 34
53 48 46 41 33 32 27 26 29 24 22 25 22 20 16 16 16 16 18 30 26 28 25 28 33 39 45 45 45 41 41 39 40 45 45 37 45 46 40 36 35 34 35
53 47 41 38 35 30 33 31 28 24 25 21 20 17 15 16 20 23 22 26 25 25 29 32 39 44 49 49 45 42 42 43 40 41 45 47 42 42 39 37 35 35 34
51 40 39 39 33 32 35 31 30 28 25 22 19 15 13 12 20 27 26 25 27 26 18 25 34 39 52 53 50 49 45 50 50 45 48 53 45 44 37 36 36 35 34
43 40 40 35 31 32 32 29 29 26 23 21 19 18 11 13 19 25 26 25 26 28 25 22 16 22 43 47 39 45 44 47 47 50 46 52 51 49 33 34 36 40 36
45 39 35 38 37 33 29 29 30 27 24 24 22 19 15 15 20 24 22 24 28 25 23 20 16 14 32 46 48 46 45 47 56 58 53 55 46 50 37 34 37 42 37
40 38 39 35 30 30 29 25 24 26 29 28 27 19 20 16 17 20 20 20 27 25 22 24 29 32 41 40 38 37 46 50 59 56 58 53 57 50 37 44 42 40 39
Wind_Direction_500mb
268 266 276 273 272 266 260 255 257 260 271 276 261 253 238 236 246 254 262 268 273 279 268 279 290 301 292 256 242 224 219 214 222 225 233 221 199 171 198 222 215 210 213
276 276 276 280 279 274 266 250 248 252 262 271 261 238 243 252 255 262 263 274 268 278 273 280 292 282 283 255 242 223 218 219 221 222 228 215 195 214 229 216 209 221 237
282 281 282 276 282 283 274 248 244 251 250 251 248 240 253 265 265 274 267 272 274 270 271 276 281 272 274 256 238 225 216 218 219 222 231 216 212 214 223 213 208 217 217
279 279 282 279 280 279 273 253 247 252 256 256 254 249 263 261 266 269 278 281 276 270 259 264 270 267 262 251 236 226 216 219 215 221 228 221 218 219 218 210 216 213 211
274 276 280 278 272 267 266 253 250 252 257 268 256 252 258 258 275 281 286 283 277 271 268 255 267 254 260 250 231 224 216 217 215 220 222 225 212 210 211 219 202 204 230
270 272 272 272 262 258 256 246 248 252 263 258 252 243 250 267 276 282 278 271 274 272 264 259 266 249 247 242 228 225 215 217 217 224 224 219 213 203 209 204 187 183 198
267 269 268 263 253 253 252 239 241 247 251 245 238 243 261 268 274 279 272 270 277 278 266 263 258 246 233 229 227 226 219 218 219 224 224 217 214 206 205 201 196 199 221
267 265 266 261 254 250 244 238 235 239 244 247 246 255 265 272 278 273 268 262 263 268 265 259 251 236 235 227 230 225 220 222 220 225 225 214 212 205 204 215 207 208 214
261 264 265 259 251 243 247 240 236 238 241 240 243 244 249 246 266 272 268 265 259 260 257 251 246 234 231 229 226 218 223 223 225 225 227 216 212 209 208 206 205 207 204
259 260 259 252 244 243 240 233 235 239 241 242 242 245 249 254 270 282 272 267 267 267 259 250 247 239 229 235 229 228 223 221 223 226 225 217 215 209 212 191 202 203 201
258 254 249 241 241 242 219 226 238 237 240 241 244 247 244 249 259 256 279 273 259 266 261 247 241 229 221 237 230 229 225 219 220 223 224 216 206 195 201 197 194 195 194
251 246 242 244 239 221 217 225 233 226 239 243 248 244 246 249 249 253 266 269 267 271 260 257 245 219 214 242 220 228 214 206 209 216 213 210 200 197 193 189 190 192 186
238 235 238 227 223 220 217 225 222 225 233 236 238 246 248 250 242 253 253 261 262 268 266 257 240 219 208 221 230 208 196 198 208 210 204 206 197 197 194 189 189 187 178
240 239 236 228 203 209 214 214 219 220 235 234 245 244 244 240 241 243 256 259 242 248 256 251 238 222 208 220 200 193 197 205 207 203 199 205 200 192 192 186 174 166 173
238 228 232 210 209 213 214 212 216 227 234 241 240 242 240 238 239 244 253 265 238 232 245 236 230 215 202 196 190 186 188 204 187 192 197 198 196 182 188 175 173 173 178
227 223 215 204 206 206 211 213 219 230 236 237 239 232 238 238 240 244 245 243 231 234 235 234 218 212 203 201 191 183 183 183 182 185 188 187 186 189 180 173 175 177 182
214 207 201 200 202 203 207 219 228 234 231 223 225 229 230 233 244 241 239 228 222 227 226 210 202 202 201 195 184 185 185 180 183 183 184 190 186 186 183 172 177 179 183
202 199 193 197 200 206 216 228 228 227 209 209 204 227 234 231 245 238 235 222 211 215 201 203 192 189 192 189 200 196 187 180 184 183 181 181 187 191 179 176 184 183 184
196 187 189 193 195 203 216 212 221 209 203 194 216 249 239 240 240 237 224 204 203 204 201 207 195 185 183 185 189 194 191 187 180 179 173 180 184 190 181 176 179 186 186
186 181 185 187 187 200 206 214 220 197 219 213 231 247 253 250 239 225 213 204 200 199 205 205 196 183 178 181 188 180 180 183 176 174 175 175 183 179 175 179 189 190 190
177 174 173 178 192 208 210 206 195 203 211 211 227 254 244 243 222 212 210 198 201 215 217 206 192 185 183 184 189 182 183 176 178 174 175 176 182 176 176 185 194 197 197
168 171 178 185 195 201 191 202 205 209 213 230 247 239 241 248 203 193 184 192 208 212 208 205 199 194 188 188 184 187 188 176 163 178 175 176 180 180 184 195 198 198 206
172 177 181 192 197 199 191 202 201 218 231 240 234 224 244 209 192 193 198 203 215 213 221 218 207 214 197 194 194 187 196 187 180 170 179 178 183 189 191 200 200 205 208
172 182 185 190 195 190 194 202 207 217 234 222 206 201 193 178 173 181 196 201 202 192 184 197 229 226 199 188 198 193 195 191 181 174 180 183 192 192 196 208 204 213 216
175 186 193 186 186 197 206 205 214 217 212 195 192 198 191 186 185 184 196 205 198 195 193 200 192 182 184 193 195 193 196 194 182 181 189 190 187 195 201 213 209 211 222
179 186 181 185 195 201 205 201 202 197 199 194 184 201 198 195 189 182 186 201 198 200 199 187 183 174 181 186 191 205 205 199 191 186 196 198 193 196 207 217 214 220 223
Wind_Speed_850mb
36 31 30 35 40 42 44 47 49 38 32 34 34 28 25 26 26 30 27 32 25 31 31 26 29 31 26 29 27 24 24 24 24 22 28 34 33 28 11 28 24 30 33
40 36 31 33 36 36 37 38 38 32 23 20 22 30 28 32 31 37 36 35 29 37 38 27 31 29 29 29 31 27 25 26 28 24 28 27 43 36 22 31 25 29 30
44 42 39 38 36 34 36 35 34 36 38 30 24 29 33 35 39 34 37 44 40 38 41 32 33 28 28 30 31 31 29 27 26 26 27 32 44 45 30 35 27 29 27
49 47 44 45 39 39 37 39 38 38 34 37 33 30 37 37 34 39 44 48 46 37 38 34 30 23 25 27 31 31 31 32 27 27 29 29 42 43 35 28 26 26 28
52 52 50 50 44 43 40 40 40 44 45 37 36 37 34 35 43 45 51 46 34 37 36 29 27 27 25 24 31 31 30 33 30 28 33 28 42 35 37 28 26 23 23
56 52 52 51 49 48 41 40 44 49 47 42 36 35 41 45 44 45 35 31 31 32 33 35 33 31 27 22 30 31 31 36 32 30 30 31 44 37 40 33 31 24 14
56 54 54 48 49 50 43 42 42 46 45 39 36 37 41 48 48 45 35 31 29 33 38 40 33 34 33 25 27 32 31 34 34 30 30 32 38 41 38 34 38 29 16
52 50 49 46 47 49 43 47 45 44 43 46 43 41 41 42 44 40 32 33 32 32 26 29 30 37 36 29 26 30 33 36 32 32 30 33 36 40 43 37 36 31 27
51 46 43 43 43 47 44 48 50 45 46 44 41 33 13 18 18 19 20 21 25 28 26 30 33 32 36 35 29 29 32 37 36 33 31 33 38 42 46 31 29 25 25
53 47 43 41 40 44 43 38 40 43 43 44 44 43 42 34 18 12 10 12 15 21 20 23 28 30 35 34 32 28 32 33 36 32 33 33 36 40 42 38 37 28 26
56 48 43 40 39 41 39 41 40 39 41 41 41 43 35 32 33 28 23 16 16 18 20 20 20 23 35 33 42 31 33 34 37 31 33 34 37 39 38 31 36 31 28
57 49 43 37 35 38 37 39 36 29 32 38 36 38 35 36 34 27 25 19 18 17 20 17 19 23 39 25 28 29 31 34 34 31 32 37 38 44 39 39 34 29 32
60 51 43 35 34 43 38 37 35 34 31 33 31 34 35 34 32 26 23 16 18 18 20 19 17 19 25 28 27 31 30 34 32 31 33 41 44 44 40 39 35 32 39
56 48 39 31 33 39 38 38 31 30 30 31 33 34 32 33 33 32 26 22 16 20 19 14 16 19 26 27 21 26 27 28 32 32 36 43 44 44 43 34 29 41 40
52 48 37 33 43 41 36 38 32 31 31 30 32 31 29 29 28 28 25 23 22 18 16 15 13 20 24 26 26 22 24 25 31 34 39 40 41 44 37 34 39 44 36
55 43 37 42 47 40 35 33 28 29 28 28 29 27 26 24 25 25 24 21 21 20 19 15 17 23 29 29 29 29 24 25 29 34 36 40 43 41 35 40 43 38 35
54 41 44 50 46 40 35 32 27 25 25 25 25 23 21 20 23 24 25 24 21 16 22 18 19 23 26 31 36 31 28 25 29 32 38 40 39 37 40 39 38 35 33
51 45 48 48 47 38 32 29 28 27 26 19 19 16 19 20 21 23 24 29 27 16 16 17 23 28 28 33 33 35 34 28 27 32 36 38 40 36 36 37 40 38 33
54 53 48 48 41 33 26 24 19 27 25 17 9 13 17 21 20 19 20 24 28 23 17 18 24 32 33 35 35 41 30 30 30 34 34 38 38 32 35 40 39 36 31
58 52 47 41 38 27 25 21 22 28 24 22 17 16 18 17 19 20 21 24 28 26 22 21 25 35 39 39 38 37 37 33 37 42 41 39 37 39 38 39 37 35 34
53 48 46 41 33 32 27 26 29 24 22 25 22 20 16 16 16 16 18 30 26 28 25 28 33 39 45 45 45 41 41 39 40 45 45 37 45 46 40 36 35 34 35
53 47 41 38 35 30 33 31 28 24 25 21 20 17 15 16 20 23 22 26 25 25 29 32 39 44 49 49 45 42 42 43 40 41 45 47 42 42 39 37 35 35 34
51 40 39 39 33 32 35 31 30 28 25 22 19 15 13 12 20 27 26 25 27 26 18 25 34 39 52 53 50 49 45 50 50 45 48 53 45 44 37 36 36 35 34
43 40 40 35 31 32 32 29 29 26 23 21 19 18 11 13 19 25 26 25 26 28 25 22 16 22 43 47 39 45 44 47 47 50 46 52 51 49 33 34 36 40 36
45 39 35 38 37 33 29 29 30 27 24 24 22 19 15 15 20 24 22 24 28 25 23 20 16 14 32 46 48 46 45 47 56 58 53 55 46 50 37 34 37 42 37
40 38 39 35 30 30 29 25 24 26 29 28 27 19 20 16 17 20 20 20 27 25 22 24 29 32 41 40 38 37 46 50 59 56 58 53 57 50 37 44 42 40 39
Wind_Direction_850mb
268 266 276 273 272 266 260 255 257 260 271 276 261 253 238 236 246 254 262 268 273 279 268 279 290 301 292 256 242 224 219 214 222 225 233 221 199 171 198 222 215 210 213
276 276 276 280 279 274 266 250 248 252 262 271 261 238 243 252 255 262 263 274 268 278 273 280 292 282 283 255 242 223 218 219 221 222 228 215 195 214 229 216 209 221 237
282 281 282 276 282 283 274 248 244 251 250 251 248 240 253 265 265 274 267 272 274 270 271 276 281 272 274 256 238 225 216 218 219 222 231 216 212 214 223 213 208 217 217
279 279 282 279 280 279 273 253 247 252 256 256 254 249 263 261 266 269 278 281 276 270 259 264 270 267 262 251 236 226 216 219 215 221 228 221 218 219 218 210 216 213 211
274 276 280 278 272 267 266 253 250 252 257 268 256 252 258 258 275 281 286 283 277 271 268 255 267 254 260 250 231 224 216 217 215 220 222 225 212 210 211 219 202 204 230
270 272 272 272 262 258 256 246 248 252 263 258 252 243 250 267 276 282 278 271 274 272 264 259 266 249 247 242 228 225 215 217 217 224 224 219 213 203 209 204 187 183 198
267 269 268 263 253 253 252 239 241 247 251 245 238 243 261 268 274 279 272 270 277 278 266 263 258 246 233 229 227 226 219 218 219 224 224 217 214 206 205 201 196 199 221
267 265 266 261 254 250 244 238 235 239 244 247 246 255 265 272 278 273 268 262 263 268 265 259 251 236 235 227 230 225 220 222 220 225 225 214 212 205 204 215 207 208 214
261 264 265 259 251 243 247 240 236 238 241 240 243 244 249 246 266 272 268 265 259 260 257 251 246 234 231 229 226 218 223 223 225 225 227 216 212 209 208 206 205 207 204
259 260 259 252 244 243 240 233 235 239 241 242 242 245 249 254 270 282 272 267 267 267 259 250 247 239 229 235 229 228 223 221 223 226 225 217 215 209 212 191 202 203 201
258 254 249 241 241 242 219 226 238 237 240 241 244 247 244 249 259 256 279 273 259 266 261 247 241 229 221 237 230 229 225 219 220 223 224 216 206 195 201 197 194 195 194
251 246 242 244 239 221 217 225 233 226 239 243 248 244 246 249 249 253 266 269 267 271 260 257 245 219 214 242 220 228 214 206 209 216 213 210 200 197 193 189 190 192 186
238 235 238 227 223 220 217 225 222 225 233 236 238 246 248 250 242 253 253 261 262 268 266 257 240 219 208 221 230 208 196 198 208 210 204 206 197 197 194 189 189 187 178
240 239 236 228 203 209 214 214 219 220 235 234 245 244 244 240 241 243 256 259 242 248 256 251 238 222 208 220 200 193 197 205 207 203 199 205 200 192 192 186 174 166 173
238 228 232 210 209 213 214 212 216 227 234 241 240 242 240 238 239 244 253 265 238 232 245 236 230 215 202 196 190 186 188 204 187 192 197 198 196 182 188 175 173 173 178
227 223 215 204 206 206 211 213 219 230 236 237 239 232 238 238 240 244 245 243 231 234 235 234 218 212 203 201 191 183 183 183 182 185 188 187 186 189 180 173 175 177 182
214 207 201 200 202 203 207 219 228 234 231 223 225 229 230 233 244 241 239 228 222 227 226 210 202 202 201 195 184 185 185 180 183 183 184 190 186 186 183 172 177 179 183
202 199 193 197 200 206 216 228 228 227 209 209 204 227 234 231 245 238 235 222 211 215 201 203 192 189 192 189 200 196 187 180 184 183 181 181 187 191 179 176 184 183 184
196 187 189 193 195 203 216 212 221 209 203 194 216 249 239 240 240 237 224 204 203 204 201 207 195 185 183 185 189 194 191 187 180 179 173 180 184 190 181 176 179 186 186
186 181 185 187 187 200 206 214 220 197 219 213 231 247 253 250 239 225 213 204 200 199 205 205 196 183 178 181 188 180 180 183 176 174 175 175 183 179 175 179 189 190 190
177 174 173 178 192 208 210 206 195 203 211 211 227 254 244 243 222 212 210 198 201 215 217 206 192 185 183 184 189 182 183 176 178 174 175 176 182 176 176 185 194 197 197
168 171 178 185 195 201 191 202 205 209 213 230 247 239 241 248 203 193 184 192 208 212 208 205 199 194 188 188 184 187 188 176 163 178 175 176 180 180 184 195 198 198 206
172 177 181 192 197 199 191 202 201 218 231 240 234 224 244 209 192 193 198 203 215 213 221 218 207 214 197 194 194 187 196 187 180 170 179 178 183 189 191 200 200 205 208
172 182 185 190 195 190 194 202 207 217 234 222 206 201 193 178 173 181 196 201 202 192 184 197 229 226 199 188 198 193 195 191 181 174 180 183 192 192 196 208 204 213 216
175 186 193 186 186 197 206 205 214 217 212 195 192 198 191 186 185 184 196 205 198 195 193 200 192 182 184 193 195 193 196 194 182 181 189 190 187 195 201 213 209 211 222
179 186 181 185 195 201 205 201 202 197 199 194 184 201 198 195 189 182 186 201 198 200 199 187 183 174 181 186 191 205 205 199 191 186 196 198 193 196 207 217 214 220 223